This is the latest recevied weather packets stored in our database for station/object JF2ZGN-13. If no packets are shown the sender has not sent any weather packets the latest 10 day(s).
| Time | Temp. | Humidity | Pressure | Rain* | Wind** | Luminosity | Snow |
|---|---|---|---|---|---|---|---|
| 1787465647 | 23.33° C | 84% | 913.4 hPa | 0.25 mm | - | - | - |
| 1787465047 | 23.33° C | 85% | 913.4 hPa | 0.25 mm | - | - | - |
| 1787464446 | 22.78° C | 85% | 913.5 hPa | 0.25 mm | - | - | - |
| 1787463845 | 22.78° C | 84% | 913.5 hPa | 0.25 mm | - | - | - |
| 1787463245 | 22.78° C | 85% | 913.6 hPa | 0.25 mm | - | - | - |
| 1787462644 | 23.33° C | 84% | 913.6 hPa | 0.25 mm | - | - | - |
| 1787462044 | 23.33° C | 83% | 913.6 hPa | 0.25 mm | - | - | - |
| 1787461443 | 23.33° C | 82% | 913.6 hPa | 0.25 mm | - | - | - |
| 1787460843 | 23.89° C | 83% | 913.6 hPa | 0.25 mm | - | - | - |
| 1787460243 | 23.89° C | 79% | 913.6 hPa | 0.25 mm | - | - | - |
| 1787459643 | 23.89° C | 82% | 913.6 hPa | 0.25 mm | - | - | - |
| 1787459042 | 23.33° C | 81% | 913.5 hPa | 0.25 mm | - | - | - |
| 1787458441 | 23.33° C | 83% | 913.5 hPa | 0.25 mm | - | - | - |
| 1787457841 | 23.33° C | 82% | 913.6 hPa | 0.25 mm | - | - | - |
| 1787457240 | 23.33° C | 83% | 913.5 hPa | 0.25 mm | - | - | - |
| 1787456640 | 22.78° C | 83% | 913.5 hPa | 0.25 mm | - | - | - |
| 1787456039 | 22.78° C | 83% | 913.2 hPa | 0.25 mm | - | - | - |
| 1787455439 | 22.22° C | 84% | 913.5 hPa | 0.25 mm | - | - | - |
| 1787454839 | 22.22° C | 84% | 913.3 hPa | 0.25 mm | - | - | - |
| 1787454239 | 22.22° C | 83% | 913.8 hPa | 0.25 mm | - | - | - |
| 1787453637 | 22.22° C | 82% | 913.8 hPa | 0.25 mm | - | - | - |
| 1787453037 | 22.22° C | 82% | 913.8 hPa | 0.25 mm | - | - | - |
| 1787452437 | 22.22° C | 80% | 913.9 hPa | 0.25 mm | - | - | - |
| 1787451837 | 22.22° C | 78% | 913.9 hPa | 0.25 mm | - | - | - |
| 1787451236 | 22.78° C | 75% | 913.6 hPa | 0.25 mm | - | - | - |
* Rain since midnight (hover to see other rain measurements)
** Current wind speed in m/s (hover to see current wind gust speed)